User: anonymous   Login
Location: Vancouver
(49.2500°N, 123.1330°W)
Time: 11:57:24
(UTC-07:00)
Language:

AO-27 - Orbit

View from above orbital plane
View from above orbital plane
View from above satellite
View from above satellite

Ground track
Ground track

The orbit data is extracted from the following two-line orbital elements,

1 22825U 93061C   16270.47383637  .00000027  00000-0  28078-4 0  9993
2 22825  98.7713 227.4041 0008981  28.3891 331.7778 14.29969264199718
Epoch (UTC): 26 September 2016 11:22:19
Eccentricity: 0.0008981
inclination: 98.7713°
perigee height: 785 km
apogee height: 798 km
right ascension of ascending node: 227.4041°
argument of perigee: 28.3891°
revolutions per day: 14.29969264
mean anomaly at epoch: 331.7778°
orbit number at epoch: 19971

The dashed part of the orbit path shows where the satellite is in the earth's shadow,  

DLR